CANX-4

Last updated on Tue Oct 08 2024 00:03:35 GMT+0000 (Coordinated Universal Time)

1 40055U 14034C 24281.00251662 .00005875 00000+0 80527-3 0 9994 2 40055 98.3854 120.4265 0012971 188.8415 171.2568 14.78795070553076
UTC large
Height (km)
Speed (km/s)
/
Latitude / Longitude
Inclination (degrees)
Orbital Period (minutes)
Azimuth
Elevation
Range (km)
Doppler Factor

Next 0 passes for location: London (51.5072 / 0.1276)

Sorry there are no passes over London.